Location: ?ernice
(48.8383°N, 14.3803°E)
Time: 22:05:25
(UTC+00:00)

Cosmos 2219 Rocket - Pass Details

Date: 23 May 2024
Orbit: 826 x 847 km, 71.0° (Epoch: 20 June)

Event Time Altitude Azimuth Distance (km) Brightness Sun altitude
Rises 01:49:17 0° 331° (NNW) 3,399 5.6 -10.9°
Reaches altitude 10° 01:51:44 10° 333° (NNW) 2,464 4.9 -10.6°
Maximum altitude 01:57:25 84° 62° (ENE) 853 2.3 -10.0°
Drops below altitude 10° 02:03:05 10° 151° (SSE) 2,460 4.4 -9.4°
Sets 02:05:31 0° 152° (SSE) 3,393 5.2 -9.1°
